Temperature
8 10 9 10 10 11 11 11 11 11 10 10 11 11 11 10 9 9 9 8 8 7 7 8 8 8 8 8 9 8 8 8 8 9 9 9 9 9 9 9 9 9 9 9
9 9 9 9 9 9 10 10 11 9 8 9 10 10 11 10 9 9 9 8 8 7 7 7 7 8 8 8 8 8 8 8 8 8 8 8 8 8 8 9 9 9 9 9
9 8 8 8 8 9 9 10 10 9 8 8 9 11 11 10 8 8 7 7 7 7 7 7 7 7 7 8 8 8 8 8 8 7 7 7 7 8 8 8 8 8 8 8
8 7 7 7 8 8 9 8 8 8 9 9 9 10 11 10 9 8 7 7 7 6 6 6 6 6 7 7 7 7 7 7 7 7 7 7 7 7 7 7 7 8 8 8
7 6 7 7 7 8 8 7 7 8 8 8 8 8 11 9 9 9 8 7 6 6 5 5 6 6 6 6 6 7 7 7 7 7 6 6 6 6 6 7 7 7 7 7
6 6 6 7 6 7 6 7 6 7 7 7 8 8 11 10 9 9 8 7 6 5 5 5 5 5 6 6 6 6 6 6 6 6 6 6 6 6 6 6 6 6 6 6
6 6 5 5 6 6 6 7 7 7 7 9 7 8 10 9 8 7 7 6 5 4 4 4 5 5 5 5 5 5 5 5 5 5 5 5 5 5 5 6 6 6 6 6
6 6 6 5 6 6 6 7 8 8 9 9 6 8 10 7 5 5 4 4 4 4 4 4 4 4 5 5 5 5 5 5 5 5 5 5 5 5 5 5 5 5 5 5
7 6 5 4 5 6 6 6 6 6 5 7 8 8 8 6 6 5 4 4 3 3 3 3 3 4 4 4 4 4 4 4 4 4 4 4 4 4 4 4 4 4 4 4
6 5 4 4 5 4 6 6 5 6 7 8 9 8 9 7 6 6 4 4 3 3 3 3 3 3 3 4 4 4 4 4 4 4 4 4 4 4 4 4 4 4 4 4
4 4 4 4 4 5 4 4 5 6 6 7 8 9 8 7 6 5 4 3 3 2 2 2 2 3 3 3 3 3 3 3 3 3 3 3 3 3 3 3 3 3 3 3
3 5 4 4 3 3 4 5 5 6 5 5 7 8 6 5 5 4 3 2 2 2 2 1 2 2 2 2 2 2 3 3 3 3 3 3 2 2 2 2 2 2 3 3
3 3 4 4 3 2 3 3 3 3 4 5 6 8 5 4 4 3 2 2 2 1 1 1 1 1 1 1 2 2 2 2 2 2 2 2 2 2 2 2 2 2 2 2
3 3 4 6 5 4 3 2 2 3 4 5 5 6 5 4 4 3 2 2 1 1 1 1 1 1 1 1 1 1 1 1 1 1 1 1 1 1 1 1 1 1 1 1
2 2 2 2 2 2 2 2 2 2 4 5 5 4 5 5 4 3 2 1 1 1 0 0 0 0 0 0 1 0 1 1 1 1 1 1 1 1 1 1 1 1 1 1
0 1 1 1 1 1 1 2 2 2 2 3 3 3 4 3 2 2 1 1 0 0 -0 -0 -0 -0 -0 0 0 0 0 0 0 0 0 0 -0 -0 -0 -0 -0 -0 -0 0
0 0 1 2 0 1 2 2 1 1 1 2 3 4 3 2 2 1 1 0 0 0 -0 -0 -0 -0 -0 -0 -0 -0 -0 -0 -0 -1 -1 -1 -1 -1 -1 -1 -1 -1 -1 -1
-1 -0 1 1 1 2 4 1 1 1 1 1 1 2 2 1 1 0 0 0 -0 -0 -0 -0 -0 -0 -1 -1 -1 -1 -1 -1 -1 -1 -1 -1 -2 -1 -2 -2 -2 -2 -2 -2
-1 -0 1 1 2 3 3 1 -0 0 1 0 0 0 0 -1 -1 0 -0 -0 -0 -1 -1 -1 -1 -1 -1 -1 -1 -1 -1 -1 -2 -2 -2 -2 -2 -2 -2 -2 -2 -2 -2 -2
-2 -1 0 0 2 3 3 0 -1 0 2 0 -1 -0 -1 -1 1 2 -0 -1 -1 -1 -1 -1 -1 -1 -1 -1 -2 -1 -2 -2 -2 -2 -2 -2 -3 -3 -3 -3 -3 -3 -3 -3
-2 -1 -0 0 1 3 1 -2 -1 2 2 -0 -1 -1 -2 -1 0 -1 -1 -1 -1 -1 -1 -1 -1 -2 -2 -2 -2 -2 -2 -2 -2 -3 -3 -3 -3 -3 -3 -3 -3 -3 -3 -3
-0 -0 -1 -0 1 2 -1 -2 0 1 -1 -1 -1 -2 -2 -2 -2 -2 -2 -2 -2 -2 -2 -2 -2 -2 -2 -2 -2 -2 -2 -2 -3 -3 -3 -3 -3 -3 -3 -4 -4 -4 -4 -4
-1 -0 0 0 1 -1 -2 -2 -1 -2 -2 -2 -2 -2 -2 -2 -2 -3 -3 -2 -2 -2 -2 -2 -2 -2 -2 -3 -3 -3 -3 -3 -3 -3 -3 -3 -4 -4 -4 -4 -4 -4 -4 -5
-2 -4 -2 -2 -1 -2 -3 -2 -2 -2 -2 -2 -2 -2 -2 -3 -3 -3 -3 -3 -3 -3 -3 -3 -3 -3 -3 -3 -3 -3 -3 -3 -4 -4 -4 -4 -4 -4 -4 -4 -4 -5 -5 -5
-1 -3 -3 -2 -2 -3 -3 -3 -2 -2 -2 -2 -3 -3 -3 -3 -3 -3 -4 -4 -3 -3 -3 -4 -4 -3 -3 -3 -3 -4 -4 -4 -4 -4 -4 -4 -4 -5 -5 -5 -5 -5 -5 -5
-3 -3 -2 -0 -1 -2 -2 -2 -2 -2 -2 -3 -3 -3 -3 -3 -4 -4 -4 -4 -4 -4 -4 -4 -4 -4 -4 -4 -4 -4 -4 -4 -5 -5 -5 -5 -5 -5 -5 -5 -5 -5 -5 -5
Wind_Speed
3 5 7 8 8 4 6 7 8 6 2 6 11 12 9 8 9 10 9 8 8 6 4 2 2 1 1 1 1 1 1 1 1 1 1 1 1 1 1 1 1 2 2 3
4 7 6 5 5 4 6 7 6 4 2 5 8 12 10 9 11 11 10 10 9 7 5 4 3 2 1 1 1 1 0 0 1 1 1 2 1 1 1 1 1 2 2 2
7 2 4 6 6 7 6 8 7 5 3 4 6 9 10 8 9 9 9 9 9 8 7 5 4 3 2 1 0 0 0 1 1 1 1 1 1 1 1 1 1 2 2 2
4 2 5 6 7 7 7 4 5 5 5 4 4 6 7 7 8 9 10 9 9 8 7 6 4 3 2 1 1 0 0 0 0 1 1 1 2 2 2 2 2 2 2 2
4 4 5 6 6 6 3 2 3 4 5 4 6 6 6 5 9 10 9 9 8 7 6 6 5 4 3 1 0 0 0 0 0 1 1 2 2 2 1 1 2 2 2 2
2 1 2 2 2 4 5 4 2 2 3 6 7 8 7 5 7 6 6 7 6 5 5 4 3 2 2 1 0 0 0 1 1 1 1 2 2 2 1 2 2 2 2 2
2 3 2 2 4 4 5 4 3 4 5 6 4 7 7 2 3 4 5 5 4 4 4 3 2 2 2 1 1 1 0 1 1 2 2 2 2 2 3 3 2 2 2 2
5 4 5 4 5 6 7 7 5 5 5 3 4 8 4 0 1 2 2 3 3 3 3 3 2 2 2 1 1 1 1 1 1 1 2 2 2 2 3 3 3 3 3 3
5 3 1 1 1 4 6 6 2 1 1 4 6 5 5 3 2 2 2 2 2 2 2 2 2 1 1 1 2 2 2 2 1 1 2 2 2 2 3 3 3 3 3 3
2 3 2 1 2 0 2 5 4 4 4 6 5 6 5 4 4 2 2 2 1 1 1 1 1 1 1 1 1 1 2 2 2 2 2 2 3 3 3 3 3 3 4 4
2 3 2 3 6 6 5 5 4 4 3 5 5 4 1 3 3 3 2 2 1 2 2 2 1 1 1 1 1 1 1 2 2 2 2 3 3 3 3 3 3 3 4 4
2 2 3 3 1 2 5 6 7 5 5 4 5 5 1 1 2 2 1 2 3 2 2 1 1 1 1 1 1 1 2 2 2 2 2 3 3 3 3 3 3 4 4 4
4 4 3 2 3 3 4 5 5 2 3 6 7 5 2 1 1 1 2 3 2 2 1 1 1 1 1 1 1 1 2 2 2 2 2 2 3 3 3 3 4 4 4 4
3 3 5 6 2 4 5 7 7 7 6 8 11 10 6 4 4 4 4 4 3 2 2 2 2 2 2 2 2 2 2 2 2 2 2 2 3 3 3 4 4 4 4 4
2 4 4 4 3 3 5 8 10 12 12 10 10 10 11 8 6 5 4 4 3 3 3 3 3 2 2 2 2 2 2 2 2 2 2 2 3 3 3 3 4 4 4 4
2 3 2 3 3 4 6 9 11 13 12 13 12 13 10 7 5 5 5 5 5 4 4 3 3 3 3 3 3 3 2 2 2 2 3 3 3 3 3 3 4 3 3 3
4 4 4 3 1 3 8 9 11 9 9 10 13 11 6 6 7 6 6 6 6 5 5 4 4 4 4 3 3 3 2 2 2 2 3 3 3 3 3 3 3 3 3 3
5 4 2 2 2 7 3 1 5 8 9 9 8 7 6 7 6 6 6 6 6 5 5 5 4 4 3 3 3 3 2 2 2 2 3 3 3 3 3 3 3 3 3 3
3 5 3 3 5 7 4 2 3 5 6 7 9 8 6 5 5 6 4 5 5 5 5 4 4 4 3 3 3 2 3 3 3 3 3 3 3 4 4 4 4 3 3 3
2 2 3 4 4 6 2 2 2 2 5 4 6 7 5 2 4 3 1 3 4 3 3 3 3 3 3 3 2 3 3 3 4 4 3 3 3 4 4 4 4 4 3 4
4 4 6 7 7 7 1 2 4 5 3 1 4 5 5 5 5 3 2 3 3 3 2 2 2 2 3 2 3 3 4 4 4 3 3 4 4 4 4 4 4 4 4 4
7 6 7 6 7 7 3 5 6 3 2 1 3 4 4 5 4 4 3 3 3 3 3 2 2 3 2 2 3 4 4 3 3 3 3 4 4 4 3 4 4 4 4 4
7 6 4 7 6 1 5 4 3 2 2 3 4 4 4 4 4 4 4 4 4 4 3 3 3 3 3 2 3 4 3 2 2 3 3 3 3 3 3 4 4 3 3 3
4 3 4 5 6 5 5 5 4 4 5 4 4 4 4 5 5 4 4 4 4 4 4 3 3 3 3 3 3 4 3 2 2 3 3 3 3 3 3 3 3 3 3 3
4 6 5 6 5 4 5 6 6 4 4 4 3 3 4 4 5 4 4 4 4 4 3 3 3 4 4 3 3 3 2 2 3 3 3 3 3 3 3 3 3 4 4 4
5 7 6 6 4 4 4 3 4 4 5 4 4 4 4 4 5 4 4 4 4 4 4 3 4 4 4 3 3 3 2 3 3 3 3 3 3 3 3 3 4 4 5 6
Wind_Direction
165 186 201 200 208 223 200 211 223 226 229 232 238 247 245 228 223 225 222 219 219 221 217 199 194 168 139 100 77 54 37 12 346 307 304 268 266 264 250 243 255 241 237 232
170 216 217 201 192 192 198 213 226 230 236 245 255 258 251 233 228 228 226 222 219 216 212 208 207 196 181 151 108 74 17 331 311 306 303 283 260 261 270 288 263 246 242 241
197 175 185 186 190 201 216 223 224 227 249 248 269 260 235 222 222 225 228 225 220 216 215 214 210 206 185 169 198 220 268 294 312 335 333 309 242 234 269 290 276 276 261 241
206 199 189 193 203 211 224 224 218 214 226 242 238 262 234 213 218 220 219 219 221 216 215 212 210 210 211 213 204 232 210 206 309 304 279 273 255 255 269 273 285 300 297 271
189 184 191 205 213 209 200 172 204 219 227 251 230 247 250 211 229 223 216 215 216 216 215 213 211 208 213 201 176 136 67 104 217 257 260 264 270 272 273 280 290 310 311 307
180 198 218 192 154 178 149 139 135 197 219 243 222 227 255 216 223 221 213 213 211 212 212 212 212 204 201 181 142 50 54 7 340 295 277 278 275 274 262 274 286 300 309 303
190 197 185 170 154 166 187 180 199 209 216 235 183 227 250 232 229 238 235 226 218 214 210 208 209 209 209 202 198 224 218 302 328 315 293 287 272 264 258 260 265 286 298 294
193 206 189 193 200 189 195 203 216 228 232 237 204 233 246 39 276 255 245 232 217 206 203 208 220 226 221 220 219 232 246 276 290 299 308 307 289 279 278 272 270 272 280 291
200 192 122 180 222 187 178 204 225 179 279 255 235 249 267 235 224 208 193 182 204 216 220 225 228 237 240 229 238 243 249 268 288 298 299 300 308 296 288 285 278 276 283 293
187 183 191 178 165 94 225 160 168 196 216 241 244 244 239 212 209 183 186 205 239 255 272 266 255 264 272 261 254 257 260 271 293 308 309 301 292 286 286 291 294 294 293 291
182 173 167 185 204 194 172 180 196 199 243 244 251 244 214 215 200 201 215 246 279 281 271 264 284 302 308 294 268 274 284 291 306 315 311 305 298 295 295 293 295 299 302 301
172 176 200 221 262 285 230 212 195 208 217 232 257 265 81 217 190 206 248 292 313 306 290 272 277 285 289 292 298 300 296 296 302 308 306 308 307 303 303 304 303 302 299 301
160 166 173 195 201 210 228 219 211 212 209 221 235 250 112 153 187 247 285 300 310 315 314 291 279 282 298 299 303 308 309 307 309 307 304 316 310 308 307 306 305 303 301 304
163 192 222 231 234 181 214 215 202 198 219 231 237 253 254 252 269 282 286 288 286 282 281 282 287 289 289 293 300 306 313 316 313 308 306 312 312 314 311 305 302 303 303 307
177 214 226 261 270 229 238 228 212 217 228 238 249 249 263 264 269 276 276 269 268 269 273 276 283 283 280 289 304 307 308 313 315 313 311 314 316 317 315 309 305 303 304 306
168 193 192 246 255 252 255 250 233 235 238 243 256 263 270 269 264 266 265 255 256 263 266 269 275 275 270 274 287 298 303 310 311 306 307 314 314 317 314 313 309 307 307 306
170 165 189 233 278 273 257 242 223 226 227 226 238 254 261 256 257 256 261 257 251 258 263 263 267 269 267 266 268 273 283 294 295 295 300 305 305 309 312 314 310 309 306 305
164 165 186 203 187 237 252 102 216 226 239 231 249 262 259 262 273 269 259 248 249 259 263 263 264 267 267 263 258 259 261 264 272 282 290 297 301 303 305 306 307 309 308 307
183 173 178 195 234 263 263 201 188 214 252 230 239 254 269 294 286 262 235 239 254 258 261 260 258 259 258 254 247 239 249 256 260 269 280 292 294 294 297 301 302 305 306 307
127 173 189 196 229 244 259 136 161 200 254 221 223 240 254 253 255 265 234 266 263 258 259 258 257 256 247 247 232 228 245 253 259 267 275 281 282 282 285 291 297 298 294 294
170 186 208 216 235 259 263 154 165 209 263 196 216 229 225 236 263 300 295 282 261 255 261 262 256 253 251 243 223 231 244 255 267 276 277 279 278 278 279 285 287 291 290 292
186 186 199 202 223 246 151 157 200 257 355 238 236 235 241 260 278 277 272 267 262 266 269 270 268 274 269 243 228 237 251 267 277 276 276 279 282 285 281 281 284 285 287 289
209 207 202 207 226 311 177 213 246 287 257 265 260 252 244 255 265 266 269 271 271 273 277 279 268 279 279 256 241 248 264 273 270 272 274 280 286 286 281 277 279 281 282 282
217 214 217 242 254 254 236 248 261 256 262 271 263 255 241 244 252 260 267 275 280 280 277 272 267 270 279 280 268 261 266 258 249 258 270 278 281 287 288 282 274 272 273 275
204 182 210 245 271 280 248 243 256 261 266 269 268 257 247 242 249 256 265 272 274 275 273 265 261 266 273 281 280 277 262 242 241 253 264 272 275 278 285 284 282 277 272 273
194 193 206 238 231 232 259 249 249 252 258 258 261 265 259 247 248 257 263 269 272 272 269 263 262 261 267 274 278 279 260 237 236 247 256 261 268 275 280 287 296 292 280 288
Height
1501 1501 1499 1500 1501 1500 1499 1500 1500 1503 1508 1508 1504 1503 1504 1507 1509 1509 1510 1511 1512 1512 1513 1514 1514 1515 1516 1517 1517 1517 1518 1518 1518 1518 1518 1518 1519 1519 1520 1520 1521 1521 1522 1522
1501 1500 1501 1503 1503 1503 1501 1501 1501 1506 1510 1508 1503 1500 1500 1503 1504 1505 1506 1507 1508 1509 1510 1511 1512 1513 1513 1514 1514 1515 1515 1516 1516 1515 1515 1515 1516 1516 1516 1517 1517 1517 1518 1518
1496 1501 1502 1503 1504 1503 1502 1500 1501 1504 1508 1508 1505 1496 1495 1498 1501 1503 1503 1504 1505 1506 1507 1508 1509 1509 1510 1510 1511 1512 1512 1513 1513 1513 1513 1512 1513 1513 1513 1513 1513 1514 1514 1515
1499 1502 1503 1502 1502 1502 1501 1504 1505 1506 1505 1501 1504 1493 1487 1492 1496 1498 1499 1501 1501 1503 1504 1505 1505 1506 1507 1507 1508 1509 1510 1510 1510 1510 1510 1510 1509 1509 1509 1509 1509 1510 1510 1511
1498 1501 1501 1501 1501 1503 1502 1507 1507 1506 1505 1505 1504 1502 1482 1491 1491 1491 1495 1497 1498 1500 1501 1501 1502 1503 1504 1504 1505 1506 1507 1507 1507 1508 1507 1507 1506 1506 1506 1506 1506 1506 1507 1507
1500 1502 1502 1501 1504 1505 1507 1508 1509 1508 1505 1503 1498 1497 1479 1483 1485 1487 1491 1494 1495 1497 1498 1499 1499 1500 1501 1501 1502 1503 1504 1504 1504 1504 1504 1504 1503 1503 1502 1503 1503 1503 1503 1503
1499 1501 1502 1503 1503 1506 1505 1504 1503 1501 1499 1490 1499 1495 1481 1482 1487 1488 1490 1492 1493 1494 1495 1496 1496 1497 1497 1498 1499 1500 1501 1501 1501 1501 1501 1501 1500 1500 1500 1499 1499 1499 1499 1499
1493 1494 1499 1501 1499 1499 1501 1500 1496 1491 1487 1484 1500 1489 1479 1486 1488 1489 1490 1491 1492 1493 1493 1493 1494 1494 1494 1495 1496 1497 1498 1498 1498 1498 1498 1498 1497 1497 1496 1497 1496 1496 1496 1496
1489 1493 1501 1501 1501 1499 1500 1499 1501 1500 1504 1495 1483 1483 1482 1485 1486 1488 1489 1490 1490 1491 1491 1491 1491 1491 1492 1492 1493 1494 1495 1495 1495 1495 1494 1495 1494 1494 1494 1493 1493 1493 1492 1492
1491 1496 1499 1501 1501 1502 1500 1499 1502 1499 1493 1483 1478 1479 1474 1479 1482 1485 1487 1488 1488 1489 1489 1489 1489 1489 1489 1490 1491 1491 1492 1492 1492 1492 1491 1491 1491 1491 1491 1490 1490 1489 1489 1488
1494 1495 1500 1500 1499 1496 1501 1502 1499 1496 1494 1484 1476 1472 1476 1478 1481 1483 1486 1487 1487 1487 1487 1487 1487 1487 1487 1487 1488 1488 1488 1488 1488 1488 1488 1488 1488 1487 1487 1487 1486 1486 1485 1485
1494 1493 1495 1498 1501 1501 1498 1495 1495 1493 1495 1494 1481 1476 1480 1481 1483 1484 1486 1486 1486 1486 1486 1486 1485 1485 1485 1485 1485 1485 1485 1485 1485 1485 1485 1485 1485 1484 1484 1483 1482 1482 1482 1481
1493 1494 1493 1493 1500 1502 1499 1497 1498 1498 1494 1490 1483 1477 1481 1482 1483 1484 1485 1485 1485 1485 1484 1484 1484 1483 1483 1483 1483 1482 1482 1482 1482 1482 1482 1482 1481 1481 1480 1479 1479 1478 1478 1477
1492 1492 1488 1480 1480 1489 1494 1496 1497 1496 1490 1484 1480 1474 1478 1480 1482 1483 1484 1484 1483 1483 1483 1482 1482 1482 1481 1481 1480 1480 1480 1480 1479 1479 1479 1478 1478 1477 1476 1476 1476 1475 1474 1473
1491 1490 1492 1491 1491 1491 1490 1491 1493 1492 1484 1482 1475 1478 1475 1478 1480 1482 1482 1482 1482 1481 1481 1481 1480 1480 1479 1479 1478 1478 1477 1477 1477 1476 1475 1475 1474 1474 1473 1473 1472 1471 1470 1469
1492 1491 1494 1493 1493 1493 1491 1488 1488 1488 1486 1483 1481 1479 1476 1478 1480 1480 1480 1480 1480 1479 1479 1479 1478 1478 1477 1477 1476 1475 1475 1474 1474 1473 1473 1472 1471 1470 1470 1469 1468 1467 1467 1466
1491 1493 1490 1485 1494 1492 1482 1479 1482 1482 1480 1479 1476 1473 1474 1476 1476 1477 1477 1477 1477 1477 1477 1476 1476 1475 1475 1474 1473 1473 1473 1472 1471 1471 1470 1469 1468 1468 1467 1466 1465 1464 1463 1462
1490 1490 1489 1488 1493 1484 1470 1477 1477 1477 1476 1476 1474 1473 1473 1474 1474 1475 1475 1474 1474 1475 1474 1474 1473 1472 1472 1471 1471 1470 1470 1469 1469 1468 1467 1467 1466 1465 1464 1463 1462 1461 1460 1459
1489 1489 1488 1487 1480 1470 1471 1475 1476 1476 1472 1473 1473 1472 1472 1473 1473 1471 1471 1471 1472 1472 1471 1471 1470 1470 1469 1468 1468 1467 1467 1467 1466 1465 1465 1464 1464 1463 1461 1460 1459 1458 1457 1456
1490 1489 1487 1486 1478 1469 1465 1473 1475 1476 1469 1468 1469 1469 1470 1471 1469 1467 1469 1469 1468 1468 1468 1468 1467 1467 1466 1466 1465 1465 1464 1464 1463 1463 1462 1462 1461 1460 1459 1458 1457 1456 1455 1454
1487 1487 1485 1481 1475 1465 1469 1473 1475 1472 1464 1466 1466 1467 1468 1468 1467 1467 1466 1466 1466 1465 1465 1465 1464 1464 1463 1463 1462 1461 1461 1460 1460 1460 1459 1459 1458 1457 1456 1455 1454 1453 1452 1451
1476 1477 1480 1478 1475 1467 1470 1471 1470 1465 1465 1464 1465 1465 1465 1465 1464 1464 1463 1463 1463 1462 1462 1462 1461 1460 1460 1460 1459 1458 1458 1458 1457 1457 1456 1456 1455 1454 1453 1452 1451 1450 1449 1448
1473 1471 1468 1469 1466 1465 1466 1465 1465 1465 1464 1463 1463 1463 1463 1462 1462 1461 1461 1460 1460 1460 1459 1459 1458 1457 1457 1457 1456 1455 1455 1454 1454 1453 1453 1453 1452 1451 1450 1449 1448 1447 1446 1445
1471 1472 1471 1469 1463 1464 1464 1463 1463 1462 1462 1461 1461 1461 1460 1460 1459 1459 1458 1457 1457 1456 1456 1456 1455 1454 1454 1453 1453 1452 1452 1451 1451 1450 1450 1450 1449 1448 1447 1446 1445 1444 1443 1442
1464 1468 1467 1465 1462 1461 1460 1460 1459 1459 1459 1459 1458 1458 1458 1457 1456 1456 1455 1454 1454 1453 1453 1453 1452 1451 1450 1450 1449 1449 1448 1448 1448 1447 1447 1446 1446 1445 1444 1443 1442 1441 1440 1439
1461 1461 1460 1456 1457 1458 1456 1456 1456 1456 1456 1456 1455 1455 1455 1454 1453 1453 1452 1452 1451 1450 1450 1449 1449 1448 1447 1447 1446 1446 1445 1445 1444 1444 1444 1443 1443 1442 1441 1440 1439 1438 1437 1436